STARLINK-4339, 53054

Orbit data source: Space-Track

STARLINK-4339, 53054 is a payload satellite owned by SpaceX/Seattle (US) in SSO that was launched on Mon, 11 Jul 2022 UTC via an FALCON 9 launch vehicle from the Air Force Western Test Range (AFWTR). Payload-class satellites include a variety of spacecraft equipped with specific instruments for various scientific and technological missions. These include communications satellites like Starlink; space stations such as the ISS; scientific satellites like the Hubble; Earth observation satellites from companies like Planet Labs, Umbra, and HawkEye 360; GPS; miniature CubeSats for education and research; and military/defense satellites.

Loading next visibility...
Identifier
53054, 2022-077M
Orbit
SSO
Country
Flag of USUS
Related business
Manufacturer
SpaceX/Seattle
Mission
Operational Commercial Communications
Bus & Motor
STARLINK, Unknown motor
Mass
297 kg wet, ~275 kg dry
Launch date (UTC)
2022-07-11 (3 years ago)
Launch vehicle
FALCON 9
Launch site
Air Force Western Test Range (AFWTR)
Object type
Payload
Rocket body
Debris
Shape & HBR
Box + 1 Pan, 10.1 m
Radar Cross Section
13.562 m², Large (>1 m²)

Expand to show TLE details & history
Last TLE update: 20 hours ago

TLE from 20 hours ago
0 STARLINK-4339
1 53054U 22077M   25348.77031138  .00004899  00000-0  34367-3 0  9993
2 53054  97.6034 167.5593 0001491  83.1104 277.0292 15.05635054188208
Epoch: 2025-12-14T18:29Z
TLE epoch observation values (Epoch: 2025-12-14T18:29:14.903Z)
Latitude
-0.00004°
Longitude
166.56875°
Altitude
552.496 km
Speed
7.586 km/s
True Right ascension
11h 10m 14s
True Declination
0° 00' 00"
Sunlit
Object was in daylight at epoch
Visualization orbit readout
Latitude
Unknown
Longitude
Unknown
Altitude
Unknown
Speed
Unknown
Apparent Right ascension
Unknown
Apparent Declination
Unknown
Sunlit
N/A
Visualization observer readout
Local Sidereal Time
13:19:51
Azimuth
Unknown
Elevation
Unknown
Doppler factor
Unknown
Orbital elements
Apogee altitude
547.583 km
Perigee altitude
545.518 km
Semi-major axis
6,924.688 km
Eccentricity
0.00015
Inclination
97.6034°
RAAN
167.5593°
Arg. of periapsis
83.1104°
True anomaly
277.01224°
Mean anomaly
277.0292°
Eccentric anomaly
277.02072°
Mean motion
3.76654 °/min
Orbital period
95.58 mins
BSTAR
0.00034367
Loading maneuver chart data...
Computing Atmospheric mass density...
Loading historical data...
Loading historical data...
Loading historical data...
Loading historical data...
Loading historical data...
Loading historical data...
Loading historical data...

Documentation

Showing up to 5 results
|